This demonstration page uses our WeatherBlox Daily Observations layout. Learn more.

Left ArrowRight Arrow

41.86663, -103.66717

Hourly Observations for March 25, 2021

Temp ( °F °C ) Dew Point ( °F °C ) Humidity (%) Winds ( mph kmh ) Pressure ( in mb ) Visibility ( mi km ) Precip ( " mm )
12:53 am 00:53 Clear 37 2.8 26 -3.3 65 65 SE 9 15 29.71 1006 10 16.0934 0 0
1:53 am 01:53 Clear 37 2.8 28 -2.2 70 70 undefined N/A 29.67 1005 10 16.0934 0 0
2:53 am 02:53 Clear 36 2.2 28 -2.2 73 73 SSW 13 20 29.65 1004 10 16.0934 0 0
3:53 am 03:53 Clear 34 1.1 27 -2.8 76 76 SW 8 13 29.65 1004 10 16.0934 0 0
4:53 am 04:53 Clear 33 0.6 27 -2.8 78 78 S 8 13 29.65 1004 10 16.0934 0 0
5:53 am 05:53 Clear 27 -2.8 23 -5 85 85 E 8 13 29.68 1005 10 16.0934 0 0
6:53 am 06:53 Sunny 25 -3.9 22 -5.6 88 88 E 7 11 29.7 1006 10 16.0934 0 0
7:53 am 07:53 Sunny 35 1.7 26 -3.3 70 70 Calm 29.68 1005 10 16.0934 0 0
8:53 am 08:53 Sunny 40 4.4 31 -0.6 70 70 SE 6 9 29.69 1005 10 16.0934 0 0
9:53 am 09:53 Sunny 49 9.4 43 6.1 80 80 W 15 24 29.67 1005 10 16.0934 0 0
10:53 am 10:53 Sunny 52 11.1 47 8.3 83 83 W 20 31 29.64 1004 10 16.0934 0 0
11:53 am 11:53 Sunny 53 11.7 48 8.9 83 83 W 14 22 29.64 1004 10 16.0934 0 0
12:53 pm 12:53 Sunny 54 12.2 50 10 87 87 WNW 12 19 29.61 1003 10 16.0934 0 0
1:53 pm 13:53 Mostly Sunny 56 13.3 51 10.6 84 84 WSW 16 26 29.6 1002 10 16.0934 0 0
2:53 pm 14:53 Sunny 53 11.7 50 10 89 89 SW 7 11 29.59 1002 10 16.0934 0 0
3:53 pm 15:53 Sunny 55 12.8 50 10 83 83 WNW 10 17 29.58 1002 10 16.0934 0 0
4:53 pm 16:53 Sunny 55 12.8 50 10 83 83 WNW 12 19 29.6 1002 10 16.0934 0 0
5:53 pm 17:53 Sunny 54 12.2 49 9.4 83 83 VRB 6 9 29.62 1003 10 16.0934 0 0
6:53 pm 18:53 Sunny 50 10 42 5.6 74 74 WNW 7 11 29.64 1004 10 16.0934 0 0
7:53 pm 19:53 Clear 46 7.8 35 1.7 66 66 NW 3 6 29.64 1004 10 16.0934 0 0
8:53 pm 20:53 Clear 41 5 30 -1.1 65 65 N 6 9 29.66 1004 10 16.0934 0 0
9:53 pm 21:53 Cloudy 42 5.6 33 0.6 71 71 Calm 29.66 1004 10 16.0934 0 0
10:53 pm 22:53 Cloudy 42 5.6 33 0.6 71 71 Calm 29.67 1005 10 16.0934 0 0
11:53 pm 23:53 Partly Cloudy 40 4.4 31 -0.6 70 70 NNE 6 9 29.66 1005 10 16.0934 0 0

Powered by AerisWeather